TimeCST,TemperatureF,Dew PointF,Humidity,Sea Level PressureIn,VisibilityMPH,Wind Direction,Wind SpeedMPH,Gust SpeedMPH,PrecipitationIn,Events,Conditions,WindDirDegrees,DateUTC
12:15 AM,75.4,67.3,76,30.13,7.0,NNE,12.7,-,N/A,,Overcast,20,2012-12-05 06:15:00
12:35 AM,75.2,66.4,74,30.13,7.0,North,10.4,-,N/A,,Mostly Cloudy,10,2012-12-05 06:35:00
12:55 AM,74.3,66.2,76,30.13,10.0,NE,6.9,-,N/A,,Scattered Clouds,40,2012-12-05 06:55:00
1:15 AM,74.3,65.8,75,30.13,10.0,NNE,6.9,-,N/A,,Mostly Cloudy,20,2012-12-05 07:15:00
1:35 AM,73.4,65.7,77,30.12,10.0,North,9.2,-,N/A,,Mostly Cloudy,360,2012-12-05 07:35:00
1:55 AM,72.5,64.9,77,30.13,7.0,North,9.2,-,N/A,,Scattered Clouds,360,2012-12-05 07:55:00
2:15 AM,72.0,64.4,77,30.13,7.0,North,9.2,16.1,N/A,,Clear,360,2012-12-05 08:15:00
2:35 AM,71.6,64.0,77,30.14,7.0,North,11.5,19.6,N/A,,Scattered Clouds,360,2012-12-05 08:35:00
2:55 AM,70.7,64.0,79,30.14,7.0,North,11.5,-,N/A,,Clear,350,2012-12-05 08:55:00
3:15 AM,69.8,63.7,81,30.14,7.0,North,12.7,17.3,N/A,,Clear,360,2012-12-05 09:15:00
3:35 AM,69.3,63.5,82,30.14,7.0,North,13.8,-,N/A,,Clear,360,2012-12-05 09:35:00
3:55 AM,68.9,63.1,82,30.14,7.0,North,11.5,-,N/A,,Scattered Clouds,360,2012-12-05 09:55:00
4:15 AM,68.9,62.4,80,30.15,7.0,North,9.2,-,N/A,,Overcast,360,2012-12-05 10:15:00
4:35 AM,68.0,61.5,80,30.15,7.0,North,9.2,-,N/A,,Mostly Cloudy,350,2012-12-05 10:35:00
4:55 AM,67.5,61.0,80,30.16,7.0,North,8.1,-,N/A,,Mostly Cloudy,360,2012-12-05 10:55:00
5:15 AM,67.1,60.8,80,30.17,7.0,North,5.8,-,N/A,,Mostly Cloudy,350,2012-12-05 11:15:00
5:35 AM,66.7,60.8,81,30.17,7.0,NNW,6.9,-,N/A,,Overcast,330,2012-12-05 11:35:00
5:55 AM,66.4,60.4,81,30.17,7.0,NNW,8.1,-,N/A,,Mostly Cloudy,340,2012-12-05 11:55:00
6:15 AM,66.2,60.1,81,30.18,7.0,NNW,12.7,-,N/A,,Mostly Cloudy,340,2012-12-05 12:15:00
6:35 AM,65.7,59.4,80,30.18,7.0,North,10.4,-,N/A,,Mostly Cloudy,350,2012-12-05 12:35:00
6:55 AM,64.9,59.0,81,30.20,7.0,North,9.2,-,N/A,,Scattered Clouds,350,2012-12-05 12:55:00
8:55 AM,66.2,50.7,57,30.22,7.0,North,15.0,-,N/A,,Clear,350,2012-12-05 14:55:00
9:15 AM,67.1,50.2,55,30.22,5.0,North,11.5,-,N/A,,Haze,360,2012-12-05 15:15:00
9:35 AM,68.0,50.0,52,30.22,5.0,North,10.4,-,N/A,,Haze,350,2012-12-05 15:35:00
9:55 AM,69.1,50.4,51,30.22,5.0,North,10.4,-,N/A,,Haze,350,2012-12-05 15:55:00
10:15 AM,70.7,50.4,48,30.22,7.0,NNW,8.1,-,N/A,,Clear,340,2012-12-05 16:15:00
10:35 AM,71.8,50.5,47,30.22,7.0,NNW,8.1,-,N/A,,Clear,340,2012-12-05 16:35:00
10:55 AM,72.7,51.6,47,30.21,7.0,North,8.1,-,N/A,,Clear,350,2012-12-05 16:55:00
11:15 AM,73.8,51.4,45,30.21,7.0,NW,6.9,-,N/A,,Clear,310,2012-12-05 17:15:00
11:55 AM,75.9,51.1,42,30.19,7.0,NW,6.9,-,N/A,,Clear,320,2012-12-05 17:55:00
12:15 PM,77.2,51.1,40,30.17,7.0,NW,5.8,-,N/A,,Clear,320,2012-12-05 18:15:00
12:35 PM,77.4,50.9,39,30.16,7.0,NW,10.4,-,N/A,,Clear,310,2012-12-05 18:35:00
12:55 PM,77.9,49.6,37,30.14,7.0,NW,9.2,-,N/A,,Clear,310,2012-12-05 18:55:00
1:15 PM,79.2,48.4,34,30.12,7.0,NNW,8.1,-,N/A,,Clear,340,2012-12-05 19:15:00
1:35 PM,79.7,48.6,33,30.11,7.0,North,10.4,-,N/A,,Clear,360,2012-12-05 19:35:00
1:55 PM,79.7,47.8,33,30.10,10.0,NNW,6.9,-,N/A,,Clear,330,2012-12-05 19:55:00
2:15 PM,80.2,47.3,31,30.09,10.0,NW,11.5,-,N/A,,Clear,320,2012-12-05 20:15:00
2:35 PM,80.1,46.4,31,30.07,10.0,NW,10.4,-,N/A,,Clear,320,2012-12-05 20:35:00
2:55 PM,80.1,45.9,30,30.07,10.0,NW,10.4,-,N/A,,Clear,320,2012-12-05 20:55:00
3:15 PM,80.8,46.0,29,30.06,10.0,NNW,12.7,18.4,N/A,,Clear,330,2012-12-05 21:15:00
3:35 PM,80.6,46.2,30,30.06,10.0,NNW,9.2,-,N/A,,Clear,340,2012-12-05 21:35:00
3:55 PM,80.2,45.7,30,30.06,10.0,North,9.2,-,N/A,,Clear,10,2012-12-05 21:55:00
4:15 PM,80.1,45.9,30,30.05,10.0,North,9.2,-,N/A,,Clear,350,2012-12-05 22:15:00
4:35 PM,79.7,46.2,31,30.05,10.0,North,5.8,-,N/A,,Clear,10,2012-12-05 22:35:00
4:55 PM,78.8,45.5,31,30.06,10.0,NNE,8.1,-,N/A,,Clear,20,2012-12-05 22:55:00
5:15 PM,77.4,45.5,32,30.05,10.0,NNE,5.8,-,N/A,,Clear,30,2012-12-05 23:15:00
5:35 PM,75.2,45.1,34,30.05,10.0,NE,6.9,-,N/A,,Clear,40,2012-12-05 23:35:00
5:55 PM,73.0,45.7,38,30.05,10.0,NNE,4.6,-,N/A,,Clear,30,2012-12-05 23:55:00
6:15 PM,72.5,45.5,38,30.05,10.0,Calm,Calm,-,N/A,,Clear,0,2012-12-06 00:15:00
6:35 PM,70.0,46.6,43,30.06,10.0,Calm,Calm,-,N/A,,Clear,0,2012-12-06 00:35:00
6:55 PM,68.5,47.3,47,30.06,10.0,Calm,Calm,-,N/A,,Clear,0,2012-12-06 00:55:00
7:15 PM,66.7,47.8,51,30.06,7.0,ENE,3.5,-,N/A,,Clear,70,2012-12-06 01:15:00
7:35 PM,66.7,47.8,51,30.06,10.0,NE,3.5,-,N/A,,Clear,50,2012-12-06 01:35:00
7:55 PM,65.7,47.8,53,30.07,7.0,East,3.5,-,N/A,,Clear,80,2012-12-06 01:55:00
8:15 PM,63.3,48.9,59,30.07,7.0,East,5.8,-,N/A,,Clear,90,2012-12-06 02:15:00
8:35 PM,63.7,53.4,69,30.07,7.0,East,5.8,-,N/A,,Clear,100,2012-12-06 02:35:00
8:55 PM,63.1,56.5,79,30.07,7.0,SE,3.5,-,N/A,,Clear,140,2012-12-06 02:55:00
9:15 PM,62.4,55.8,79,30.08,7.0,East,3.5,-,N/A,,Clear,100,2012-12-06 03:15:00
9:35 PM,61.9,55.4,79,30.08,7.0,ESE,3.5,-,N/A,,Clear,110,2012-12-06 03:35:00
9:55 PM,61.2,56.5,85,30.07,5.0,SSE,3.5,-,N/A,,Haze,150,2012-12-06 03:55:00
10:15 PM,61.3,56.8,85,30.07,7.0,SSE,3.5,-,N/A,,Clear,150,2012-12-06 04:15:00
10:35 PM,61.0,57.2,87,30.07,7.0,Calm,Calm,-,N/A,,Clear,0,2012-12-06 04:35:00
10:55 PM,60.8,57.4,88,30.07,5.0,Calm,Calm,-,N/A,,Clear,0,2012-12-06 04:55:00
11:15 PM,60.8,57.2,88,30.06,5.0,Calm,Calm,-,N/A,,Clear,0,2012-12-06 05:15:00
11:35 PM,59.9,56.7,89,30.06,5.0,SW,3.5,-,N/A,,Clear,230,2012-12-06 05:35:00
11:55 PM,59.4,56.1,89,30.06,5.0,SW,3.5,-,N/A,,Clear,230,2012-12-06 05:55:00